Change the Weather History Date:

Wednesday, November 5, 2014

  Actual Average Record
Temperature  
Mean Temperature 57 °F 49 °F  
Max Temperature 64 °F 59 °F 80 °F (1961)
Min Temperature 49 °F 39 °F 23 °F (1983)
Degree Days  
Heating Degree Days 8 16  
Month to date heating degree days 69 78  
Since 1 July heating degree days 361 475  
Cooling Degree Days 0 0  
Month to date cooling degree days 0 0  
Year to date cooling degree days 930 965  
Growing Degree Days 6 (Base 50)    
Moisture  
Dew Point 38 °F    
Average Humidity 54    
Maximum Humidity 77    
Minimum Humidity 30    
Precipitation  
Precipitation T in 0.11 in 1.48 in (1939)
Month to date precipitation 0.79 0.50  
Year to date precipitation 36.44 39.93  
Sea Level Pressure  
Sea Level Pressure 30.10 in    
Wind  
Wind Speed 4 mph (WSW)    
Max Wind Speed 15 mph    
Max Gust Speed 20 mph    
Visibility 10 miles    
Events Rain    
T = Trace of Precipitation, MM = Missing Value Source: NWS Daily Summary

Daily Weather History Graph

Daily Weather History Graph

Search for Another Location

Airport or City:

Trip Planner

Search our weather history database for the weather conditions in past years. The results will help you decide how hot, cold, wet, or windy it might be!

Date:

Astronomy

Nov. 05, 2014 Rise Set
Actual Time 6:33 AM EST 4:51 PM EST
Civil Twilight 6:04 AM EST 5:20 PM EST
Nautical Twilight 5:32 AM EST 5:52 PM EST
Astronomical Twilight 5:00 AM EST 6:24 PM EST
Moon 4:16 PM EST (11/5) 4:55 AM EST (11/5)
Length of Visible Light 11h 15m
Length of Day
10h 18m
Waxing Gibbous, 98% of the Moon is Illuminated
Nov 5
Waxing Gibbous
Nov 6
Full
Nov 14
Last Quarter
Nov 22
New
Nov 29
First Quarter

Hourly Weather History & Observations

Time (EST) Temp. Dew Point Humidity Pressure Visibility Wind Dir Wind Speed Gust Speed Precip Events Conditions
12:53 AM 52.0 °F 41.0 °F 66% 30.02 in 10.0 mi Calm Calm - N/A   Clear
1:53 AM 48.9 °F 41.0 °F 74% 30.01 in 10.0 mi SSW 4.6 mph - N/A   Clear
2:53 AM 52.0 °F 42.1 °F 69% 30.02 in 10.0 mi SSW 4.6 mph - N/A   Clear
3:53 AM 51.1 °F 42.1 °F 71% 30.04 in 10.0 mi SW 3.5 mph - N/A   Clear
4:53 AM 53.1 °F 42.1 °F 66% 30.05 in 10.0 mi Calm Calm - N/A   Clear
5:53 AM 53.1 °F 41.0 °F 64% 30.07 in 10.0 mi WSW 3.5 mph - N/A   Clear
6:53 AM 52.0 °F 41.0 °F 66% 30.08 in 9.0 mi SSW 3.5 mph - N/A   Clear
7:53 AM 53.1 °F 43.0 °F 69% 30.11 in 9.0 mi Calm Calm - N/A   Scattered Clouds
8:53 AM 55.0 °F 43.0 °F 64% 30.11 in 9.0 mi SW 3.5 mph - N/A   Clear
9:53 AM 57.0 °F 43.0 °F 59% 30.12 in 10.0 mi SW 6.9 mph - N/A   Clear
10:53 AM 63.0 °F 39.9 °F 43% 30.14 in 10.0 mi West 8.1 mph - N/A   Mostly Cloudy
11:53 AM 63.0 °F 42.1 °F 46% 30.11 in 10.0 mi WNW 9.2 mph 16.1 mph N/A   Mostly Cloudy
12:53 PM 63.0 °F 42.1 °F 46% 30.11 in 10.0 mi WNW 6.9 mph - N/A   Clear
1:53 PM 62.1 °F 33.1 °F 34% 30.11 in 10.0 mi NW 8.1 mph - N/A   Mostly Cloudy
2:53 PM 62.1 °F 30.0 °F 30% 30.10 in 10.0 mi WNW 8.1 mph - N/A   Clear
3:53 PM 60.1 °F 32.0 °F 35% 30.11 in 10.0 mi WSW 3.5 mph - N/A   Clear
4:53 PM 57.9 °F 33.1 °F 39% 30.12 in 10.0 mi WSW 3.5 mph - N/A   Clear
5:53 PM 57.0 °F 32.0 °F 39% 30.13 in 10.0 mi SW 4.6 mph - N/A   Clear
6:53 PM 55.0 °F 33.1 °F 43% 30.13 in 10.0 mi SW 3.5 mph - N/A   Clear
7:53 PM 55.0 °F 32.0 °F 42% 30.14 in 10.0 mi West 4.6 mph - N/A   Clear
8:53 PM 50.0 °F 35.1 °F 57% 30.14 in 10.0 mi Calm Calm - N/A   Partly Cloudy
9:53 PM 51.1 °F 37.0 °F 59% 30.14 in 10.0 mi Calm Calm - N/A   Overcast
10:53 PM 51.1 °F 37.0 °F 59% 30.14 in 10.0 mi SW 4.6 mph - N/A   Overcast
11:53 PM 53.1 °F 36.0 °F 52% 30.13 in 10.0 mi Calm Calm - 0.00 in Rain Light Rain